Погода в Красном Заречье

Россия / Владимирская область     56°19′55″N   39°52′51″E
темп.,
°C
ветер,
м/с
пор.,
м/с
влажн.,
%
обл.,
%
осадки,
мм/ч
давл.,
гПа
погр.,
м
10 мая, пн
пн1000:00+4ссз41384100 0.0 1019417
03:00+3ссз5148570 0.0 1021392
06:00+3ссз6148434 0.0 1023457
09:00+7с7116984 0.0 1025839
12:00+11ссв785263 0.0 10251235
15:00+13ссв675068 0.0 10261444
18:00+12ссв476485 0.0 1026430
21:00+7ссв49795 0.0 1027145
11 мая, вт
вт1100:00+5св48850 0.0 1028129
03:00+4ссв49920 0.0 1028149
06:00+6св512870 0.0 1028335
09:00+11св69620 0.0 1028558
12:00+15св68570 0.0 1028756
15:00+18всв57605 0.0 1027901
18:00+18всв47730 0.0 1027452
21:00+13всв359013 0.0 102774
12 мая, ср
ср1200:00+12в349486 0.0 102854
03:00+11всв229535 0.0 102819
06:00+12св36955 0.0 1027157
09:00+17всв69796 0.0 1026538
12:00+21в8116261 1.4 10241471
15:00+20в81465100 1.8 10221747
18:00+17вюв8147182 0.5 10221132
21:00+15ююв41082100 0.6 1023421
13 мая, чт
чт1300:00+11ююз23965 0.1 102442
03:00+11св239395 0.1 102374
06:00+13в5119399 0.1 1022399
09:00+16вюв6108773 1.1 1021704
12:00+20юв5868100 0.9 10191316
15:00+16вюв51082100 2.1 1019623
18:00+14юв2897100 0.9 1018376
21:00+13юв249780 1.5 1018161
14 мая, пт
пт1400:00+12юз2399100 0.0 1017105
03:00+11ююз239966 0.2 101964
06:00+12ююз249793 0.1 1019143
09:00+16ю3475100 0.1 1019559
12:00+19ю4561100 0.0 10191068
15:00+20ю3558100 0.0 10181303
18:00+20ююв1267100 0.0 101749
21:00+16юв4885100 0.8 1016125